Location: Fort Wayne
(41.1310°N, 85.1290°W)
Time: 19:02:08
(UTC-04:00)

Oscar 19 - Visible Passes

Search period start: 30 March 2015 00:00
Search period end: 09 April 2015 00:00
Orbit: 774 x 791 km, 98.5° (Epoch: 30 March)

Date Brightness Start Highest point End Pass type
(mag) Time Alt. Az. Time Alt. Az. Time Alt. Az.
30 Mar 12.9 03:27:38 10° N 03:29:07 20° N 03:29:07 20° N visible
31 Mar 13.2 02:56:04 10° NNE 02:57:10 16° NNE 02:57:10 16° NNE visible
31 Mar 12.8 04:36:21 10° NNW 04:37:45 15° NNW 04:37:45 15° NNW visible
01 Apr 13.5 02:24:57 10° NE 02:25:13 11° NE 02:25:13 11° NE visible
01 Apr 12.6 04:03:56 10° N 04:05:48 21° NNW 04:05:48 21° NNW visible
02 Apr 12.7 03:31:58 10° N 03:33:51 23° N 03:33:51 23° N visible
03 Apr 13.0 03:00:20 10° NNE 03:01:53 20° NNE 03:01:53 20° NNE visible
03 Apr 12.7 04:40:49 10° NNW 04:42:28 16° NW 04:42:28 16° NW visible
04 Apr 13.3 02:29:08 10° NE 02:29:56 14° NE 02:29:56 14° NE visible
04 Apr 12.5 04:08:18 10° N 04:10:30 23° NNW 04:10:30 23° NNW visible
05 Apr 12.4 03:36:17 10° N 03:38:33 26° N 03:38:33 26° N visible
06 Apr 12.7 03:04:36 10° NNE 03:06:36 23° NNE 03:06:36 23° NNE visible
06 Apr 12.7 04:45:18 10° NNW 04:47:10 16° NW 04:47:10 16° NW visible
07 Apr 13.1 02:33:20 10° NNE 02:34:38 17° NE 02:34:38 17° NE visible
07 Apr 12.3 04:12:41 10° N 04:15:13 24° NNW 04:15:13 24° NNW visible
08 Apr 12.2 03:40:36 10° N 03:43:15 30° N 03:43:15 30° N visible
